Talkeetna, AK

9:22 PM AKDT on May 25, 2017 (GMT -0800)
Talkeetna

Weather History for PATK - February, 2013

Change the Weather History Date:

Wednesday, February 20, 2013

  Actual Average Record
Temperature  
Mean Temperature 23 °F -  
Max Temperature 30 °F 25 °F 45 °F (1957)
Min Temperature 16 °F 5 °F -35 °F (1990)
Degree Days  
Heating Degree Days 42    
Moisture  
Dew Point 11 °F    
Average Humidity 60    
Maximum Humidity 78    
Minimum Humidity 47    
Precipitation  
Precipitation 0.00 in - - ()
Sea Level Pressure  
Sea Level Pressure 29.18 in    
Wind  
Wind Speed 5 mph (North)    
Max Wind Speed 12 mph    
Max Gust Speed 18 mph    
Visibility 10 miles    
Events      
Averages and records for this station are not official NWS values.
T = Trace of Precipitation, MM = Missing Value Source: NWS Daily Summary

Daily Weather History Graph

Daily Weather History Graph

Search for Another Location

Airport or City:

Trip Planner

Search our weather history database for the weather conditions in past years. The results will help you decide how hot, cold, wet, or windy it might be!

Date:

Astronomy

Feb. 20, 2013 Rise Set
Actual Time 8:30 AM AKST 5:58 PM AKST
Civil Twilight 7:44 AM AKST 6:45 PM AKST
Nautical Twilight 6:52 AM AKST 7:37 PM AKST
Astronomical Twilight 6:00 AM AKST 8:29 PM AKST
Moon 12:26 PM AKST (2/20) 6:01 AM AKST (2/20)
Length of Visible Light 11h 01m
Length of Day
9h 28m
Waxing Gibbous, 77% of the Moon is Illuminated
Feb 20
Waxing Gibbous
Feb 25
Full
Mar 4
Last Quarter
Mar 11
New
Mar 19
First Quarter

Hourly Weather History & Observations

Time (AKST) Temp. Windchill Dew Point Humidity Pressure Visibility Wind Dir Wind Speed Gust Speed Precip Events Conditions
12:53 AM 17.1 °F 10.0 °F 5.0 °F 59% 29.34 in 10.0 mi NNE 4.6 mph - N/A   Overcast
1:53 AM 17.1 °F 11.7 °F 5.0 °F 59% 29.32 in 10.0 mi North 3.5 mph - N/A   Overcast
3:53 AM 18.0 °F 11.1 °F 5.0 °F 57% 29.26 in 10.0 mi North 4.6 mph - N/A   Overcast
4:53 AM 19.9 °F 8.6 °F 5.0 °F 52% 29.22 in 10.0 mi North 10.4 mph 18.4 mph N/A   Overcast
5:53 AM 19.9 °F 7.9 °F 6.1 °F 55% 29.19 in 10.0 mi North 11.5 mph 17.3 mph N/A   Overcast
6:53 AM 21.0 °F 12.4 °F 6.1 °F 53% 29.17 in 10.0 mi Variable 6.9 mph 16.1 mph N/A   Overcast
7:53 AM 21.9 °F 12.5 °F 8.1 °F 55% 29.15 in 10.0 mi North 8.1 mph - N/A   Overcast
8:53 AM 21.0 °F 14.6 °F 10.0 °F 63% 29.13 in 10.0 mi North 4.6 mph - N/A   Overcast
9:53 AM 23.0 °F 17.0 °F 12.0 °F 63% 29.12 in 10.0 mi North 4.6 mph - N/A   Overcast
10:53 AM 25.0 °F 18.1 °F 12.9 °F 60% 29.11 in 10.0 mi North 5.8 mph - N/A   Overcast
11:53 AM 27.0 °F 21.6 °F 15.1 °F 61% 29.11 in 10.0 mi North 4.6 mph - N/A   Overcast
12:53 PM 28.9 °F 22.8 °F 15.1 °F 56% 29.10 in 10.0 mi North 5.8 mph - N/A   Overcast
1:53 PM 28.9 °F 19.2 °F 12.0 °F 49% 29.10 in 10.0 mi NNE 11.5 mph - N/A   Overcast
2:53 PM 30.0 °F 24.1 °F 12.0 °F 47% 29.10 in 10.0 mi NNE 5.8 mph - N/A   Mostly Cloudy
4:53 PM 28.9 °F 22.8 °F 12.9 °F 51% 29.12 in 10.0 mi NNE 5.8 mph - N/A   Overcast
5:53 PM 28.0 °F 24.2 °F 12.9 °F 53% 29.13 in 10.0 mi NNE 3.5 mph - N/A   Overcast
6:53 PM 26.1 °F - 16.0 °F 66% 29.16 in 10.0 mi Calm Calm - N/A   Overcast
7:53 PM 25.0 °F - 16.0 °F 69% 29.17 in 10.0 mi Calm Calm - N/A   Overcast
8:53 PM 24.1 °F - 17.1 °F 75% 29.18 in 10.0 mi Calm Calm - N/A   Overcast
9:53 PM 21.9 °F - 16.0 °F 78% 29.19 in 10.0 mi Calm Calm - N/A   Overcast
10:53 PM 21.9 °F - 15.1 °F 75% 29.21 in 10.0 mi Calm Calm - N/A   Overcast
11:53 PM 19.9 °F - 14.0 °F 78% 29.23 in 10.0 mi Calm Calm - N/A   Overcast